Grand Forks, ND

10:56 AM CDT on July 24, 2017 (GMT -0500)
Grand Forks International

Weather History for KGFK - May, 2014

Change the Weather History Date:

Monday, May 12, 2014

  Actual Average Record
Temperature  
Mean Temperature 42 °F 54 °F  
Max Temperature 44 °F 67 °F 95 °F (1900)
Min Temperature 40 °F 40 °F 19 °F (1918)
Degree Days  
Heating Degree Days 23 12  
Month to date heating degree days 217 166  
Since 1 July heating degree days 10391 9244  
Cooling Degree Days 0 0  
Month to date cooling degree days 0 0  
Year to date cooling degree days 0 1  
Moisture  
Dew Point 40 °F    
Average Humidity 90    
Maximum Humidity 93    
Minimum Humidity 86    
Precipitation  
Precipitation 0.51 in 0.09 in 1.78 in (1899)
Month to date precipitation 1.30 0.90  
Year to date precipitation 5.92 3.94  
Snow  
Snow 0.00 in 0.00 in T in (1997)
Month to date snowfall 0.0 0.1  
Since 1 July snowfall 60.3 47.4  
Snow Depth 0.00 in    
Sea Level Pressure  
Sea Level Pressure 29.97 in    
Wind  
Wind Speed 21 mph (NNW)    
Max Wind Speed 32 mph    
Max Gust Speed 38 mph    
Visibility 9 miles    
Events Rain    
T = Trace of Precipitation, MM = Missing Value Source: NWS Daily Summary

Daily Weather History Graph

Daily Weather History Graph

Search for Another Location

Airport or City:

Trip Planner

Search our weather history database for the weather conditions in past years. The results will help you decide how hot, cold, wet, or windy it might be!

Date:

Astronomy

May. 12, 2014 Rise Set
Actual Time 5:54 AM CDT 8:56 PM CDT
Civil Twilight 5:17 AM CDT 9:33 PM CDT
Nautical Twilight 4:30 AM CDT 10:21 PM CDT
Astronomical Twilight 3:32 AM CDT 11:19 PM CDT
Moon 6:46 PM CDT (5/12) 4:45 AM CDT (5/12)
Length of Visible Light 16h 16m
Length of Day
15h 02m
Waxing Gibbous, 95% of the Moon is Illuminated
May 12
Waxing Gibbous
May 14
Full
May 21
Last Quarter
May 28
New
Jun 5
First Quarter

Hourly Weather History & Observations

Time (CDT) Temp. Windchill Dew Point Humidity Pressure Visibility Wind Dir Wind Speed Gust Speed Precip Events Conditions
12:53 AM 42.1 °F 34.2 °F 39.0 °F 89% 29.99 in 10.0 mi North 16.1 mph 26.5 mph 0.00 in Rain Light Rain
1:53 AM 41.0 °F 33.1 °F 37.9 °F 89% 29.99 in 10.0 mi NNW 15.0 mph 24.2 mph 0.02 in Rain Light Rain
2:53 AM 41.0 °F 32.5 °F 37.9 °F 89% 29.97 in 10.0 mi North 17.3 mph 25.3 mph 0.01 in Rain Light Rain
3:53 AM 39.9 °F 30.8 °F 37.9 °F 93% 29.96 in 10.0 mi North 18.4 mph 25.3 mph 0.01 in Rain Light Rain
4:37 AM 39.2 °F 29.8 °F 37.4 °F 93% 29.93 in 10.0 mi NNW 18.4 mph 27.6 mph 0.02 in Rain Light Rain
4:53 AM 39.9 °F 30.5 °F 37.9 °F 93% 29.95 in 10.0 mi North 19.6 mph 27.6 mph 0.03 in Rain Light Rain
5:53 AM 39.9 °F 31.1 °F 37.9 °F 93% 29.96 in 10.0 mi North 17.3 mph 27.6 mph 0.03 in Rain Light Rain
6:38 AM 39.2 °F 29.6 °F 37.4 °F 93% 29.93 in 10.0 mi North 19.6 mph 27.6 mph 0.02 in Rain Light Rain
6:53 AM 39.9 °F 30.5 °F 37.9 °F 93% 29.96 in 10.0 mi North 19.6 mph 26.5 mph 0.02 in Rain Light Rain
7:53 AM 41.0 °F 31.9 °F 37.9 °F 89% 29.99 in 10.0 mi North 19.6 mph 28.8 mph 0.00 in Rain Light Rain
8:06 AM 41.0 °F 32.5 °F 37.4 °F 87% 29.96 in 10.0 mi North 17.3 mph 28.8 mph 0.00 in Rain Light Rain
8:53 AM 41.0 °F 33.1 °F 37.4 °F 87% 29.96 in 10.0 mi North 15.0 mph 23.0 mph N/A Rain Light Rain
9:53 AM 41.0 °F 31.6 °F 39.0 °F 93% 29.97 in 8.0 mi North 20.7 mph 28.8 mph 0.04 in Rain Light Rain
10:53 AM 42.1 °F 33.1 °F 39.0 °F 89% 29.98 in 10.0 mi NNW 20.7 mph 28.8 mph 0.02 in Rain Light Rain
11:53 AM 43.0 °F 33.3 °F 39.9 °F 89% 29.98 in 7.0 mi NNW 25.3 mph 33.4 mph 0.03 in Rain Light Rain
12:53 PM 44.1 °F 35.2 °F 41.0 °F 89% 29.97 in 10.0 mi NNW 23.0 mph 34.5 mph 0.03 in Rain Light Rain
1:28 PM 44.6 °F 34.4 °F 41.0 °F 87% 29.94 in 10.0 mi NNW 32.2 mph 38.0 mph 0.00 in Rain Light Rain
1:53 PM 44.1 °F 34.0 °F 41.0 °F 89% 29.96 in 10.0 mi North 29.9 mph 36.8 mph 0.01 in Rain Light Rain
2:25 PM 44.6 °F 35.3 °F 41.0 °F 87% 29.95 in 6.0 mi North 26.5 mph 34.5 mph 0.01 in Rain Rain
2:53 PM 44.1 °F 34.8 °F 41.0 °F 89% 29.98 in 5.0 mi North 25.3 mph 34.5 mph 0.04 in Rain Rain
3:51 PM 44.6 °F 35.9 °F 42.8 °F 93% 29.94 in 9.0 mi North 23.0 mph 33.4 mph 0.04 in Rain Light Rain
3:53 PM 44.1 °F 35.0 °F 42.1 °F 93% 29.97 in 9.0 mi NNW 24.2 mph 33.4 mph 0.04 in Rain Light Rain
4:53 PM 44.1 °F 34.8 °F 41.0 °F 89% 29.98 in 8.0 mi NNW 25.3 mph 34.5 mph 0.05 in Rain Light Rain
5:53 PM 44.1 °F 34.4 °F 41.0 °F 89% 29.99 in 10.0 mi NNW 27.6 mph 34.5 mph 0.01 in Rain Light Rain
6:53 PM 44.1 °F 35.7 °F 41.0 °F 89% 29.99 in 10.0 mi NNW 20.7 mph 32.2 mph 0.02 in Rain Light Rain
7:39 PM 44.6 °F 36.1 °F 41.0 °F 87% 29.97 in 10.0 mi NNW 21.9 mph 35.7 mph 0.02 in Rain Light Rain
7:53 PM 44.1 °F 36.5 °F 41.0 °F 89% 30.01 in 10.0 mi NNW 17.3 mph 33.4 mph 0.02 in Rain Light Rain
8:53 PM 43.0 °F 34.8 °F 39.9 °F 89% 30.00 in 10.0 mi NNW 18.4 mph 27.6 mph 0.02 in Rain Light Rain
9:53 PM 43.0 °F 34.0 °F 39.9 °F 89% 30.02 in 10.0 mi NNW 21.9 mph 27.6 mph 0.02 in Rain Light Rain
10:53 PM 43.0 °F 34.2 °F 39.9 °F 89% 30.01 in 10.0 mi NNW 20.7 mph 27.6 mph 0.02 in Rain Light Rain
11:53 PM 42.1 °F 33.6 °F 39.9 °F 92% 30.00 in 10.0 mi NNW 18.4 mph 25.3 mph 0.01 in Rain Light Rain